Terminal Aerodrome Forecast
Issued by NWS Spokane, WA

Home | Current Version | Previous Version | Text Only | Print | Product List | Glossary On
Versions: 1 2 3 4 5 6 7 8 9 10 11 12 13 14 15 16 17 18 19 20 21 22 23 24 25 26 27 28 29 30 31 32 33 34 35 36 37 38 39 40 41 42
000
FTUS46 KOTX 211130
TAFLWS
TAF
KLWS 211130Z 2112/2212 27024G35KT P6SM BKN080 OVC100 WS020/25038KT
     FM212000 25024G30KT P6SM BKN090 BKN150
     FM220300 24012KT P6SM BKN050=

USA.gov is the U.S. government's official web portal to all federal, state and local government web resources and services.